Wind_Speed
8 15 18 16 10 6 10 10 3 6 10 14 18 26 33 36 28 23 24 25 24 21 17 15 14 14 13 14 15 15 15 16 18 18 19 19 19 18 18 18 19 20 20 20 20 21 22 22 23
12 19 17 15 7 6 8 8 2 11 15 16 18 23 28 27 20 19 19 20 18 15 14 12 12 12 12 14 16 16 17 18 19 20 20 20 21 20 19 19 20 20 21 20 21 22 24 25 26
18 21 18 13 7 8 10 8 7 12 17 20 18 15 14 11 12 17 16 15 12 10 9 9 11 11 11 13 15 16 16 16 17 20 22 22 21 20 19 19 20 22 23 23 23 23 25 27 28
20 22 16 10 5 6 9 13 15 22 21 22 20 16 10 12 13 15 13 11 11 11 11 10 10 11 11 13 16 16 13 14 15 16 19 20 21 21 22 24 24 25 25 26 26 27 29 31 32
19 20 15 8 3 7 15 18 20 23 25 21 16 14 16 16 14 14 13 14 15 16 16 14 14 13 12 13 15 16 15 13 13 14 15 14 16 20 24 27 30 30 29 27 28 30 33 38 37
17 15 12 6 5 12 17 19 19 20 15 12 17 20 21 18 17 15 16 19 18 15 14 14 16 14 14 15 14 12 12 12 12 14 15 16 18 22 24 25 29 29 28 29 30 29 28 31 32
16 11 8 5 10 14 17 18 22 24 20 17 19 20 17 19 13 13 16 18 16 16 14 13 16 17 13 12 14 14 14 14 15 16 16 16 17 19 22 24 25 26 26 26 28 30 31 30 28
11 8 7 9 10 10 16 21 23 24 23 21 21 18 16 21 20 18 23 16 19 20 19 19 17 9 9 13 15 19 20 20 19 19 20 20 20 20 22 24 24 26 26 26 29 31 31 31 30
12 14 10 8 6 4 11 17 21 26 26 23 22 22 22 23 22 24 22 21 24 17 16 19 13 9 12 12 16 19 21 22 22 22 22 23 24 24 24 23 24 25 26 28 30 31 30 31 32
13 13 9 6 4 6 10 15 20 22 25 22 22 22 23 25 25 23 21 25 21 18 16 17 13 14 13 13 17 20 22 24 24 24 24 25 27 27 28 26 26 26 28 29 31 32 33 34 34
12 13 10 10 9 11 12 18 21 21 23 21 22 22 24 26 24 24 25 23 15 17 18 16 16 19 16 17 20 21 23 24 25 24 25 26 27 27 29 28 28 27 27 28 31 34 36 36 36
15 15 16 14 14 19 17 21 25 25 23 24 26 24 25 24 23 23 24 21 22 27 24 12 15 22 25 23 20 20 23 24 24 23 25 26 25 24 27 30 27 25 25 27 30 33 36 38 39
19 19 19 15 12 18 23 26 28 26 24 27 27 28 25 25 25 24 26 20 25 31 11 4 12 22 25 26 23 24 25 25 24 24 25 27 26 27 31 30 28 28 30 32 33 34 38 40 41
22 21 20 17 13 11 19 26 29 30 27 26 27 27 24 25 28 29 31 33 35 35 32 29 25 26 23 23 25 24 21 22 25 26 25 27 29 31 32 29 31 34 36 39 38 40 41 42 45
24 22 19 14 11 9 12 14 19 24 24 24 26 26 24 24 28 32 37 41 41 42 36 33 34 28 26 29 25 23 28 21 27 29 29 30 31 32 34 35 39 41 41 39 43 47 49 50 50
25 23 17 11 10 9 13 8 14 21 19 21 24 25 27 28 31 35 43 47 42 43 42 38 35 32 32 34 25 27 24 28 35 34 34 34 35 36 36 36 39 40 41 42 44 48 50 51 55
25 21 14 9 7 7 11 7 12 21 19 21 25 28 32 34 34 37 44 46 41 41 41 40 38 36 31 30 27 26 32 32 35 36 37 38 40 40 40 44 45 45 44 43 45 50 43 46 51
23 19 15 16 11 10 14 18 21 24 22 26 29 31 34 33 33 38 42 42 38 37 39 40 39 37 35 32 29 32 35 35 34 35 38 39 39 41 43 44 45 47 49 50 52 52 55 58 59
25 23 20 19 13 11 12 20 24 26 28 30 30 32 30 24 26 33 36 38 36 37 40 40 38 38 37 37 35 33 35 36 37 37 37 37 39 41 43 46 50 50 51 53 56 59 59 62 68
27 26 23 17 12 11 12 17 23 27 30 31 32 29 19 16 22 28 32 36 36 38 40 37 36 35 36 37 37 37 37 37 38 37 38 40 43 44 47 50 52 55 56 58 61 63 64 68 71
29 27 24 21 18 17 16 22 25 28 32 34 32 23 20 20 24 30 34 33 35 38 36 34 34 35 37 38 39 40 40 41 42 43 44 45 46 48 51 55 57 59 61 62 66 69 72 73 76
35 26 22 26 30 25 22 25 29 31 33 34 30 22 24 25 27 31 30 27 33 33 33 35 37 38 39 40 41 43 44 45 47 48 49 51 53 55 57 59 61 64 67 69 68 65 63 68 67
31 22 20 25 32 35 30 31 35 38 36 35 30 26 27 28 31 33 29 31 34 34 36 40 41 42 42 43 45 46 47 49 51 53 55 56 58 59 61 64 66 69 67 59 53 55 58 60 52
26 23 23 28 31 36 37 38 43 44 39 37 35 32 34 34 36 37 36 35 36 37 39 42 45 45 45 45 47 49 50 52 55 57 57 59 60 63 65 65 67 60 50 45 46 50 52 51 48
30 31 33 35 35 35 32 37 41 43 42 40 38 38 39 38 37 38 37 36 38 39 42 47 48 47 46 47 50 51 53 55 58 59 60 61 62 63 62 63 54 46 42 42 46 48 47 45 45
30 32 32 35 33 30 33 37 35 39 38 37 36 38 40 40 40 42 40 38 39 42 45 48 48 47 48 51 53 53 55 57 58 59 61 62 62 60 57 50 43 40 41 42 44 45 44 45 46
30 28 26 32 35 32 32 32 31 32 33 36 40 41 39 41 42 43 40 39 42 45 47 49 49 49 51 54 55 55 57 58 59 61 63 64 61 52 46 39 40 40 39 42 44 45 46 47 48
37 34 32 33 36 34 32 34 36 35 33 34 34 35 36 37 38 40 40 41 45 49 52 51 49 50 54 55 55 56 58 59 60 61 60 55 45 36 35 37 39 38 41 44 47 49 50 51 52
28 30 34 35 35 34 31 29 29 35 38 40 41 43 44 38 37 38 39 42 47 53 52 51 48 51 55 56 58 59 60 60 59 57 49 40 34 37 37 37 37 40 44 47 49 51 51 52 53
27 25 29 35 33 34 35 33 29 32 37 40 44 45 43 39 38 38 38 42 48 48 44 46 49 53 55 59 61 59 60 60 59 54 42 37 38 38 37 37 40 43 47 49 51 51 50 50 50
Wind_Direction
130 115 110 112 126 159 169 186 170 13 334 328 319 307 301 300 298 300 299 300 302 296 294 287 275 263 257 253 255 258 266 271 270 269 272 273 272 275 278 279 276 274 276 276 272 266 262 261 263
133 126 118 107 119 129 144 162 96 345 323 303 297 298 291 285 295 314 302 295 293 287 285 281 272 262 259 258 261 265 272 277 277 271 271 276 276 272 271 272 270 269 270 271 272 270 267 265 263
131 128 123 112 118 110 79 51 15 336 313 308 303 293 289 290 314 325 304 288 281 285 292 299 296 291 282 271 268 270 272 277 281 276 270 268 270 272 271 268 270 269 266 264 262 263 265 266 266
142 135 136 142 154 77 31 15 338 328 321 319 323 319 317 326 337 337 319 299 301 314 332 341 336 319 297 280 270 266 275 279 281 290 284 278 274 272 271 269 272 270 267 267 265 265 266 267 268
148 149 151 159 111 36 11 1 337 332 309 300 310 324 324 322 322 328 329 326 330 347 -0 357 356 343 319 290 268 267 277 282 283 291 296 292 287 282 285 279 272 271 271 274 274 271 271 272 277
142 156 159 129 25 14 2 351 345 337 304 294 316 326 319 320 321 312 323 330 333 340 346 346 337 329 318 307 291 284 295 304 310 309 305 298 293 289 287 282 276 274 274 277 277 276 280 278 276
139 152 144 94 32 4 342 328 335 343 339 327 324 329 321 320 331 322 326 322 323 318 308 308 304 313 311 308 316 320 323 327 325 322 316 309 304 299 292 288 285 283 280 276 273 271 275 277 278
154 186 145 79 55 342 321 324 334 332 326 330 325 320 321 330 335 318 315 304 307 297 292 298 292 285 305 318 322 320 321 320 320 320 317 313 308 302 297 293 289 284 281 278 275 276 278 279 278
182 188 166 119 111 268 292 303 313 315 316 319 315 318 325 331 326 312 301 300 312 279 270 279 275 276 290 299 305 303 304 307 311 313 311 310 308 307 305 299 294 288 282 280 279 279 279 278 278
197 210 209 177 154 249 257 274 290 300 311 322 322 318 315 321 321 323 313 302 297 272 262 268 268 261 270 278 282 289 298 304 307 306 307 307 306 307 306 308 303 293 286 282 281 281 279 277 276
224 228 233 225 199 223 244 264 278 290 303 309 308 310 308 312 325 332 330 315 309 292 270 253 268 277 270 263 270 286 296 301 301 304 308 309 308 305 306 307 303 300 295 290 288 287 284 281 277
235 244 256 255 215 205 230 256 271 278 282 299 304 304 309 320 330 338 337 324 320 317 282 246 299 314 297 282 286 302 303 301 303 304 302 306 310 305 312 309 300 297 295 295 295 294 292 285 279
243 250 261 266 257 217 217 242 261 274 285 290 296 300 311 325 329 339 341 336 337 335 291 342 339 359 340 310 312 327 315 300 304 305 311 315 316 313 317 315 307 299 297 297 295 291 288 281 275
252 260 270 273 262 247 225 237 253 262 274 281 288 295 307 322 328 334 338 341 338 342 344 336 331 337 342 326 302 300 309 310 315 314 316 317 314 309 306 302 298 293 286 281 280 282 286 279 272
263 267 273 278 269 252 251 249 254 258 260 265 276 297 311 320 323 328 332 337 337 335 331 328 334 340 331 328 317 286 302 314 323 317 314 314 310 309 306 301 300 301 298 292 287 285 286 286 278
260 268 275 276 264 250 256 251 247 250 259 273 287 303 314 321 322 324 328 331 328 326 325 328 332 336 332 327 324 314 322 320 318 316 316 313 310 308 306 302 300 297 294 290 288 291 287 285 281
257 262 265 249 231 252 267 260 269 265 271 290 300 309 314 316 319 319 320 321 320 322 326 330 331 332 327 325 322 313 322 320 316 316 314 311 308 308 307 304 299 297 296 292 284 288 281 285 283
253 252 237 222 225 244 265 266 265 271 281 291 299 308 310 308 313 311 311 314 318 321 327 327 328 326 323 323 319 318 320 317 313 312 309 306 305 306 306 303 301 298 296 295 293 293 284 284 288
242 244 238 237 233 262 267 250 255 272 281 289 296 301 299 299 304 302 304 310 320 322 323 324 326 324 322 318 317 314 315 312 311 311 309 307 307 305 302 299 298 296 294 292 292 294 291 287 289
242 244 241 227 206 255 260 256 258 269 276 282 290 293 291 300 302 298 301 310 318 320 323 324 323 320 317 317 316 316 315 312 311 311 310 308 307 305 301 299 298 297 297 295 293 292 290 287 285
242 248 244 218 204 223 248 254 260 265 273 279 284 292 293 301 302 300 304 315 320 322 323 321 318 317 318 318 317 317 314 312 312 312 310 308 307 304 303 302 301 300 298 296 295 295 294 293 291
243 239 233 219 207 217 238 251 257 263 270 275 282 290 288 295 297 296 303 314 318 321 324 322 320 320 319 318 318 316 314 312 310 308 307 308 307 306 305 305 303 301 299 300 299 299 299 301 298
245 235 231 223 218 218 227 244 254 258 263 270 278 287 285 285 287 290 294 304 309 313 317 319 319 319 318 317 317 315 313 311 309 308 308 308 307 306 306 306 304 303 304 303 303 305 306 309 307
226 226 232 235 240 237 227 236 247 256 262 269 276 282 280 280 287 290 290 294 303 307 310 314 317 317 317 316 315 314 312 310 309 309 309 308 307 307 307 305 305 305 304 304 307 309 310 312 310
219 226 232 241 249 251 242 240 248 258 262 265 267 267 271 279 284 287 285 290 301 305 306 311 315 316 318 317 315 312 310 310 310 310 308 307 306 305 304 303 304 303 303 305 307 307 308 311 310
223 232 246 253 260 263 249 247 249 253 263 265 263 264 269 275 279 283 283 286 295 300 304 308 312 314 318 317 315 312 310 309 308 306 305 304 302 301 302 303 301 301 303 306 306 306 308 311 309
224 237 249 255 261 263 248 247 243 240 250 260 265 268 270 275 276 277 282 288 291 294 299 305 311 315 315 314 313 310 309 308 307 306 306 304 301 299 301 302 302 304 306 307 306 307 309 311 312
230 234 239 245 253 253 254 250 245 249 260 266 273 272 273 272 270 274 282 290 290 290 297 306 310 311 311 311 311 311 310 309 308 309 309 309 306 299 300 302 303 305 308 309 309 308 309 312 312
242 247 241 245 248 252 256 258 259 257 261 267 274 277 280 278 274 272 279 282 285 290 297 305 309 310 311 312 313 312 311 311 310 309 307 312 308 303 303 305 306 309 311 312 310 309 310 312 311
236 241 241 245 246 248 255 263 269 267 264 265 267 270 273 272 270 268 270 278 284 289 300 309 312 313 312 312 313 312 311 311 311 307 299 300 301 302 304 306 309 312 313 313 310 310 311 312 311
Height
5905 5907 5908 5909 5911 5910 5910 5910 5910 5910 5910 5910 5909 5907 5904 5904 5907 5905 5900 5897 5897 5897 5896 5895 5895 5895 5894 5894 5894 5895 5895 5895 5896 5896 5895 5895 5894 5894 5894 5895 5895 5894 5894 5895 5894 5893 5892 5891 5889
5905 5907 5908 5908 5909 5910 5910 5910 5911 5910 5909 5911 5912 5910 5906 5905 5906 5901 5897 5896 5896 5895 5894 5894 5894 5893 5892 5892 5893 5893 5893 5893 5892 5892 5892 5892 5892 5892 5891 5891 5891 5891 5891 5890 5890 5889 5889 5887 5885
5905 5906 5907 5906 5906 5907 5907 5907 5907 5908 5908 5910 5910 5911 5908 5906 5904 5899 5895 5895 5893 5893 5893 5893 5892 5891 5891 5890 5889 5889 5890 5890 5888 5887 5887 5887 5888 5888 5888 5887 5887 5887 5887 5886 5885 5885 5885 5883 5881
5903 5904 5905 5905 5904 5905 5904 5904 5904 5904 5907 5907 5906 5905 5904 5903 5901 5896 5892 5893 5892 5892 5892 5891 5889 5889 5889 5888 5887 5886 5886 5886 5886 5885 5884 5883 5883 5884 5884 5883 5882 5882 5882 5882 5881 5881 5879 5878 5876
5903 5904 5905 5905 5904 5904 5901 5899 5901 5904 5905 5905 5904 5900 5898 5899 5897 5893 5892 5894 5893 5892 5891 5888 5888 5887 5886 5886 5885 5884 5883 5883 5883 5882 5881 5881 5880 5880 5878 5879 5879 5878 5877 5877 5877 5876 5875 5873 5872
5904 5905 5905 5905 5902 5900 5897 5899 5903 5906 5904 5902 5899 5896 5894 5895 5894 5892 5891 5891 5891 5888 5886 5885 5885 5884 5883 5883 5883 5882 5881 5880 5880 5880 5879 5878 5878 5876 5875 5874 5873 5872 5871 5871 5870 5870 5869 5867 5866
5904 5904 5903 5901 5900 5897 5896 5898 5901 5901 5898 5898 5898 5896 5891 5888 5891 5888 5888 5888 5885 5884 5884 5882 5882 5881 5880 5880 5881 5880 5878 5877 5876 5876 5875 5875 5873 5871 5870 5869 5867 5866 5865 5865 5864 5863 5862 5861 5859
5903 5904 5901 5900 5899 5897 5897 5898 5898 5896 5896 5898 5896 5894 5890 5888 5887 5884 5884 5883 5882 5879 5878 5878 5876 5876 5878 5878 5878 5878 5877 5875 5873 5871 5870 5870 5868 5866 5865 5864 5861 5860 5859 5858 5857 5856 5856 5855 5853
5901 5902 5900 5899 5900 5901 5900 5900 5897 5896 5896 5896 5894 5891 5890 5887 5885 5883 5881 5879 5876 5872 5875 5875 5874 5875 5876 5875 5875 5874 5873 5869 5867 5865 5865 5864 5863 5860 5859 5858 5856 5854 5854 5853 5851 5849 5848 5847 5845
5900 5900 5899 5899 5900 5902 5902 5900 5895 5896 5895 5893 5890 5889 5887 5884 5880 5880 5877 5876 5872 5868 5870 5873 5874 5874 5873 5872 5871 5869 5867 5864 5862 5860 5859 5858 5855 5853 5852 5851 5850 5850 5849 5847 5844 5843 5841 5840 5838
5897 5898 5897 5897 5897 5899 5899 5897 5894 5894 5892 5891 5889 5888 5885 5880 5878 5876 5874 5870 5869 5869 5865 5868 5871 5870 5868 5867 5864 5862 5861 5859 5858 5856 5854 5852 5850 5848 5846 5845 5845 5843 5842 5840 5838 5837 5835 5833 5831
5896 5896 5895 5896 5894 5895 5896 5894 5892 5892 5890 5888 5886 5884 5882 5878 5877 5876 5875 5872 5870 5871 5865 5864 5867 5868 5865 5862 5859 5857 5856 5854 5852 5850 5850 5849 5846 5843 5841 5840 5837 5835 5833 5833 5832 5829 5827 5825 5823
5892 5892 5893 5892 5891 5891 5892 5892 5891 5888 5887 5886 5884 5880 5877 5875 5874 5874 5873 5873 5871 5868 5863 5865 5865 5864 5864 5863 5858 5855 5852 5850 5848 5846 5844 5842 5840 5837 5834 5831 5829 5827 5825 5824 5823 5820 5818 5815 5813
5887 5888 5888 5889 5888 5889 5889 5888 5888 5887 5885 5883 5880 5877 5876 5873 5871 5870 5870 5869 5867 5866 5866 5865 5863 5861 5858 5855 5855 5852 5847 5844 5841 5839 5837 5835 5833 5830 5829 5826 5823 5822 5819 5816 5813 5811 5810 5808 5805
5883 5885 5886 5886 5884 5885 5885 5885 5884 5882 5883 5881 5876 5875 5875 5871 5869 5867 5867 5866 5861 5859 5862 5860 5855 5853 5852 5848 5845 5844 5841 5837 5833 5831 5830 5828 5825 5822 5819 5816 5813 5810 5807 5805 5802 5799 5797 5794 5792
5880 5880 5882 5882 5881 5880 5882 5882 5879 5876 5878 5878 5875 5874 5872 5871 5868 5865 5863 5863 5860 5855 5853 5852 5848 5847 5844 5840 5836 5838 5835 5831 5828 5825 5822 5820 5817 5815 5811 5809 5806 5801 5798 5795 5791 5787 5783 5780 5777
5874 5876 5877 5877 5876 5875 5877 5879 5876 5872 5874 5874 5872 5870 5868 5867 5865 5863 5861 5860 5857 5851 5846 5843 5840 5839 5839 5837 5834 5830 5827 5824 5822 5818 5815 5812 5808 5804 5802 5799 5796 5792 5788 5784 5780 5776 5772 5768 5765
5870 5871 5872 5871 5871 5870 5871 5872 5870 5868 5870 5871 5871 5870 5868 5864 5862 5860 5858 5855 5852 5847 5842 5838 5833 5832 5831 5831 5829 5823 5818 5817 5815 5812 5808 5803 5799 5795 5792 5788 5785 5781 5776 5772 5768 5764 5760 5755 5752
5862 5863 5865 5867 5866 5864 5865 5865 5863 5863 5866 5867 5867 5867 5865 5862 5860 5857 5854 5850 5847 5842 5837 5831 5827 5824 5823 5822 5820 5816 5813 5811 5808 5804 5799 5794 5790 5787 5783 5779 5774 5770 5766 5761 5755 5751 5746 5740 5735
5854 5856 5859 5862 5861 5860 5860 5859 5859 5860 5862 5863 5863 5861 5859 5858 5856 5853 5850 5847 5842 5837 5832 5827 5824 5822 5819 5817 5813 5809 5806 5803 5799 5794 5789 5785 5782 5777 5772 5768 5763 5758 5752 5746 5739 5734 5729 5723 5716
5848 5851 5854 5856 5856 5854 5856 5855 5855 5855 5856 5858 5859 5857 5855 5853 5850 5847 5844 5840 5835 5831 5827 5824 5821 5818 5814 5810 5806 5802 5798 5794 5789 5784 5780 5776 5773 5769 5763 5756 5750 5743 5737 5730 5722 5715 5709 5702 5694
5840 5844 5846 5849 5850 5850 5852 5851 5849 5849 5849 5852 5853 5853 5850 5847 5844 5841 5839 5836 5832 5827 5823 5820 5816 5812 5808 5804 5800 5795 5790 5786 5781 5776 5770 5766 5760 5755 5749 5743 5736 5728 5720 5713 5705 5697 5689 5682 5673
5835 5839 5839 5840 5843 5844 5845 5846 5843 5841 5843 5845 5847 5847 5845 5842 5840 5837 5835 5832 5829 5824 5819 5813 5808 5803 5800 5796 5792 5787 5782 5777 5771 5765 5760 5754 5748 5742 5735 5728 5720 5712 5704 5696 5689 5682 5674 5665 5657
5829 5831 5832 5833 5834 5834 5839 5840 5835 5834 5837 5838 5840 5840 5836 5834 5833 5831 5829 5826 5822 5817 5812 5806 5801 5797 5793 5789 5784 5779 5774 5768 5761 5755 5749 5742 5735 5728 5720 5711 5703 5696 5690 5684 5678 5672 5663 5654 5647
5821 5824 5825 5825 5825 5826 5833 5832 5831 5829 5830 5831 5833 5831 5829 5828 5827 5824 5822 5819 5815 5810 5805 5799 5795 5790 5786 5782 5776 5771 5765 5759 5752 5745 5737 5730 5723 5715 5708 5699 5691 5685 5679 5674 5667 5661 5653 5646 5640
5814 5817 5818 5818 5819 5821 5825 5822 5824 5823 5821 5822 5822 5822 5821 5821 5820 5818 5816 5813 5808 5803 5798 5793 5789 5784 5780 5774 5769 5763 5757 5750 5743 5735 5727 5719 5712 5703 5696 5688 5682 5675 5669 5663 5657 5651 5644 5637 5630
5806 5808 5812 5812 5811 5812 5813 5814 5815 5816 5816 5816 5816 5815 5815 5814 5812 5809 5807 5805 5801 5795 5790 5786 5782 5778 5773 5767 5761 5755 5748 5741 5732 5723 5714 5706 5697 5690 5683 5678 5672 5666 5660 5654 5648 5641 5634 5627 5620
5798 5802 5804 5803 5803 5803 5805 5806 5808 5810 5811 5810 5809 5808 5808 5807 5805 5803 5800 5798 5793 5788 5782 5779 5774 5770 5766 5760 5752 5745 5737 5729 5719 5711 5701 5690 5681 5677 5673 5667 5662 5657 5651 5645 5638 5631 5623 5616 5608
5793 5794 5795 5796 5796 5798 5798 5800 5803 5804 5803 5801 5800 5800 5800 5798 5797 5795 5794 5789 5784 5779 5775 5771 5766 5760 5754 5747 5741 5733 5725 5716 5706 5698 5689 5680 5675 5671 5665 5659 5653 5648 5642 5635 5627 5619 5611 5603 5594
5787 5788 5790 5789 5789 5791 5792 5796 5797 5797 5795 5794 5792 5791 5789 5788 5787 5787 5783 5778 5775 5770 5767 5762 5757 5751 5744 5737 5730 5722 5713 5704 5695 5686 5679 5672 5667 5662 5657 5651 5645 5638 5631 5624 5615 5606 5598 5590 5581